Find Starlink 31637

NORAD ID: 59258 Int'l Des: 2024-050 Owner: SPXS Country: US Constellation: starlink operational
LEOCIRCULAR

当前视图

正在加载3D地球...

About Starlink 31637

Starlink 31637 (NORAD 59258) is a starlink constellation satellite (v2 mini) launched Mar 19, 2024 by SPXS of US. It operates in LEO, CIRCULAR orbit with a mass of 730.00 kg.

关于 Starlink 31637

正在加载描述...

即将过境

Passes for default location (London). Set your location on the main map for personalized predictions.

高度历史

Loading altitude history...

两行轨道根数

1 59258U 24050E 26178.25002315 -.00001003 00000-0 -19154-4 0 9992
2 59258 53.1593 31.8932 0001187 75.8528 357.0050 15.33569390 5824
Epoch: Jun 27, 2026 • Age: 6 hours

当前状态

高度 466.0 km
速度 7.63 km/s
星下点 -0.58°S, 64.37°W
发射日期 Mar 19, 2024
运行时间 2.2 years
类型 internet

技术详情

分类 Payload
质量 730.00 kg
干质量 700.00 kg
总质量 730.00 kg
长度 0.30 m
直径 4.10 m
跨度 29.00 m
形状 Box + pan
制造商 SPXS
平台类型 Starlink V2M
阶段状态 In Orbit
所有者/国家 SPXS/US

Most Searched